[[{"header":{"parameterUnit":"m.s-1","parameterCategory":1,"la1":30.2991,"la2":30.254,"lo1":-89.0895,"lo2":-89.0444,"dy":0.0017,"dx":0.0017,"nx":28,"ny":28,"refTime":"2023-10-12T03:00:00:Z","depth":0,"parameterNumber":2,"parameterNumberName":"U-component_of_WINDS"},"data":[0,0,0,0,0,0,0,0,0,0,0,0,0,0,0,0,0,0,0,0,0,0,0,0,0,0,0,0,0,0,0,0,0,0,0,0,0,0,0,0,0,0,0,0,0,0,0,0,0,0,0,0,0,0,0,0,0,0,-0.667,-0.6671,0,-0.6757,-0.6758,-0.6759,-0.6757,-0.6755,-0.6754,-0.6753,-0.6844,-0.6847,-0.6851,0,0,0,0,0,0,0,0,0,0,0,0,0,-0.6503,-0.6506,-0.667,-0.6671,-0.6672,-0.6757,-0.6758,-0.6759,-0.6757,-0.6755,-0.6754,-0.6752,-0.6843,-0.6847,-0.6851,0,0,0,0,0,0,0,0,0,0,0,0,0,-0.6582,-0.6507,-0.667,-0.6681,-0.6683,-0.6757,-0.6758,-0.6759,-0.6757,-0.6755,-0.6753,-0.6752,-0.6841,-0.6847,-0.6852,-0.6921,0,0,-0.6868,-0.687,0,0,0,0,0,0,0,0,-0.6577,-0.6588,-0.6678,-0.668,-0.6683,-0.6744,-0.6733,-0.6814,-0.6758,-0.6729,-0.6753,-0.6751,-0.6812,-0.682,-0.684,-0.6925,-0.6929,-0.6869,-0.6872,-0.6874,-0.6876,0,0,0,0,0,0,0,-0.6572,-0.6584,-0.6704,-0.668,-0.6682,-0.6682,-0.6691,-0.6748,-0.678,-0.6731,-0.6731,-0.6742,-0.6813,-0.6835,-0.6842,-0.693,-0.6868,-0.6873,-0.6876,-0.6878,-0.7075,-0.7077,0,0,0,0,0,0,-0.6564,-0.6579,-0.6702,-0.6707,-0.6624,-0.6687,-0.6697,-0.6726,-0.6779,-0.6785,-0.6743,-0.6741,-0.6827,-0.6836,-0.6846,-0.693,-0.6874,-0.6879,-0.6882,-0.7073,-0.7076,-0.7078,0,0,0,0,0,0,-0.656,-0.6575,-0.6698,-0.6643,-0.6659,-0.6691,-0.6724,-0.6729,-0.6751,-0.6788,-0.6794,-0.676,-0.6826,-0.6838,-0.6902,-0.6933,-0.6881,-0.6886,-0.7071,-0.7074,-0.7077,-0.7099,0,0,0,0,0,0,-0.6555,-0.6573,-0.66,-0.6644,-0.6662,-0.6753,-0.6726,-0.6732,-0.676,-0.6758,-0.6805,-0.6811,-0.6825,-0.6894,-0.6907,-0.694,-0.689,-0.7068,-0.7072,-0.7076,-0.7096,-0.7103,-0.7108,0,0,0,0,0,-0.6549,-0.6603,-0.6601,-0.6616,-0.6695,-0.6755,-0.6765,-0.678,-0.6762,-0.6789,-0.6813,-0.681,-0.6927,-0.69,-0.6915,-0.695,-0.7066,-0.7071,-0.7076,-0.7093,-0.7101,-0.7108,0,0,0,0,0,0,-0.6563,-0.6609,-0.6607,-0.6677,-0.6712,-0.6754,-0.6789,-0.6788,-0.683,-0.6826,-0.6844,-0.6854,-0.6918,-0.694,-0.691,-0.7019,-0.6995,-0.7002,-0.7003,-0.7011,-0.7017,-0.7011,-0.6895,0,0,0,0,0,-0.6573,-0.6617,-0.6655,-0.6713,-0.673,-0.6756,-0.6783,-0.6791,-0.6828,-0.6843,-0.6872,-0.6908,-0.6953,-0.6983,-0.7027,-0.7098,-0.7109,-0.7129,-0.7135,-0.714,-0.7148,-0.7187,-0.7197,-0.7093,-0.7093,-0.7093,0,0,-0.6597,-0.6627,-0.6654,-0.6716,-0.6744,-0.679,-0.6769,-0.6818,-0.6852,-0.6851,-0.6913,-0.6935,-0.6977,-0.7045,-0.7076,-0.7065,-0.7178,-0.7146,-0.715,-0.7155,-0.7193,-0.7203,-0.7212,-0.7096,-0.7096,-0.7095,0,0,-0.6663,-0.669,-0.6741,-0.6769,-0.6811,-0.6828,-0.684,-0.6882,-0.6897,-0.6959,-0.6959,-0.6999,-0.7077,-0.7107,-0.7132,-0.7207,-0.7206,-0.7221,-0.7255,-0.7294,-0.7302,-0.7309,-0.7337,-0.7347,-0.7228,-0.7228,-0.7228,0,-0.6687,-0.6755,-0.6767,-0.6817,-0.6844,-0.6843,-0.6896,-0.6922,-0.6977,-0.6996,-0.6983,-0.7079,-0.7108,-0.7183,-0.7201,-0.7221,-0.7236,-0.7217,-0.7299,-0.7307,-0.7314,-0.7341,-0.7352,-0.7229,-0.7229,-0.7229,-0.7229,0,-0.6783,-0.683,-0.6866,-0.6918,-0.6949,-0.7,-0.702,-0.705,-0.7055,-0.7073,-0.7137,-0.717,-0.722,-0.7238,-0.7244,-0.7314,-0.7306,-0.7296,-0.7272,-0.7326,-0.7351,-0.7362,-0.7232,-0.7231,-0.7231,-0.723,0,0,-0.6862,-0.6919,-0.6932,-0.6956,-0.7001,-0.7038,-0.7088,-0.7137,-0.7163,-0.72,-0.7243,-0.7307,-0.7298,-0.7326,-0.7335,-0.7369,-0.7427,-0.7354,-0.7355,-0.7368,-0.7508,-0.7517,-0.7529,-0.7426,-0.7428,-0.7429,-0.7505,0,-0.6934,-0.7023,-0.7035,-0.7114,-0.7158,-0.7157,-0.72,-0.7233,-0.7251,-0.7291,-0.7311,-0.7357,-0.734,-0.7357,-0.739,-0.7413,-0.7456,-0.7408,-0.7467,-0.7469,-0.7459,-0.7542,-0.7552,-0.7622,-0.7515,-0.7517,-0.7518,0,-0.7031,-0.707,-0.7153,-0.7192,-0.7211,-0.725,-0.7295,-0.7333,-0.737,-0.738,-0.7411,-0.7416,-0.7468,-0.744,-0.7512,-0.7479,-0.7504,-0.7519,-0.7522,-0.753,-0.7498,-0.7554,-0.7645,-0.7656,-0.7534,-0.7532,-0.7531,0,-0.7082,-0.7155,-0.7214,-0.7234,-0.7281,-0.7308,-0.7329,-0.7364,-0.7392,-0.7432,-0.745,-0.7495,-0.752,-0.7555,-0.7571,-0.7549,-0.7643,-0.7616,-0.7654,-0.7654,-0.7676,-0.7675,-0.7774,-0.7689,-0.7689,-0.7688,-0.7688,0,-0.7163,-0.7214,-0.7238,-0.7275,-0.7332,-0.7345,-0.7401,-0.7421,-0.7452,-0.7493,-0.7494,-0.7532,-0.755,-0.7591,-0.7604,-0.7663,-0.7674,-0.7684,-0.7688,-0.7685,-0.7684,-0.7704,-0.77,-0.7691,-0.7691,-0.769,-0.7689,0,-0.7231,-0.7249,-0.7314,-0.7352,-0.7363,-0.7403,-0.7436,-0.7472,-0.7488,-0.754,-0.7552,-0.7579,-0.7627,-0.7646,-0.7705,-0.7713,-0.7782,-0.778,-0.7769,-0.7771,-0.7808,-0.7805,-0.7925,-0.7942,-0.7843,-0.7844,-0.7845,0,-0.7283,-0.7322,-0.7364,-0.7391,-0.7412,-0.7456,-0.7484,-0.7497,-0.7527,-0.7571,-0.7602,-0.7649,-0.7689,-0.7766,-0.7791,-0.7836,-0.7837,-0.7875,-0.7844,-0.784,-0.7839,-0.7838,-0.7842,-0.7882,-0.7883,-0.7884,-0.7885,0,-0.7372,-0.7379,-0.7419,-0.7463,-0.7496,-0.7531,-0.7565,-0.7587,-0.7606,-0.7639,-0.7688,-0.7718,-0.7778,-0.7826,-0.7872,-0.7894,-0.7893,-0.7894,-0.7905,-0.7905,-0.7898,-0.7904,-0.7787,-0.7892,-0.7891,-0.7891,-0.789,-0.789,-0.7435,-0.747,-0.7505,-0.755,-0.7576,-0.7608,-0.7643,-0.7663,-0.7704,-0.7753,-0.7758,-0.7811,-0.7846,-0.7908,-0.7932,-0.7974,-0.7964,-0.798,-0.7984,-0.7989,-0.7992,-0.7889,-0.7982,-0.7982,-0.7981,-0.7981,-0.7981,0,-0.7526,-0.7548,-0.7589,-0.7636,-0.7671,-0.7665,-0.7702,-0.7733,-0.7779,-0.7811,-0.7849,-0.7905,-0.7951,-0.7979,-0.8025,-0.8053,-0.8054,-0.8065,-0.8064,-0.807,-0.7998,-0.7984,-0.8064,-0.8064,-0.8064,-0.8064,-0.8064,-0.8064,-0.7578,-0.7637,-0.7647,-0.7719,-0.7741,-0.7792,-0.7814,-0.7843,-0.7869,-0.7931,-0.7969,-0.7986,-0.8017,-0.8065,-0.8107,-0.8113,-0.8131,-0.8144,-0.815,-0.8083,-0.8075,-0.8067,-0.8054,-0.8147,-0.8147,-0.8219,-0.8219,-0.822]},{"header":{"parameterUnit":"m.s-1","parameterCategory":1,"la1":30.2991,"la2":30.254,"lo1":-89.0895,"lo2":-89.0444,"dy":0.0017,"dx":0.0017,"nx":28,"ny":28,"refTime":"2023-10-12T03:00:00:Z","depth":0,"parameterNumber":3,"parameterNumberName":"V-component_of_WINDS"},"data":[0,0,0,0,0,0,0,0,0,0,0,0,0,0,0,0,0,0,0,0,0,0,0,0,0,0,0,0,0,0,0,0,0,0,0,0,0,0,0,0,0,0,0,0,0,0,0,0,0,0,0,0,0,0,0,0,0,0,-1.5327,-1.5327,0,-1.5324,-1.5323,-1.5323,-1.5294,-1.5294,-1.5293,-1.5292,-1.529,-1.529,-1.5291,0,0,0,0,0,0,0,0,0,0,0,0,0,-1.5308,-1.5308,-1.5327,-1.5327,-1.5327,-1.5324,-1.5323,-1.5323,-1.5295,-1.5294,-1.5293,-1.5292,-1.5289,-1.529,-1.5291,0,0,0,0,0,0,0,0,0,0,0,0,0,-1.5311,-1.5308,-1.5327,-1.5312,-1.531,-1.5324,-1.5323,-1.5323,-1.5295,-1.5294,-1.5293,-1.5292,-1.5289,-1.529,-1.5291,-1.5318,0,0,-1.5294,-1.5294,0,0,0,0,0,0,0,0,-1.5311,-1.5312,-1.5314,-1.5313,-1.5311,-1.5308,-1.5316,-1.5322,-1.5295,-1.5301,-1.5292,-1.5291,-1.5297,-1.5297,-1.5299,-1.5318,-1.5318,-1.5294,-1.5294,-1.5295,-1.5295,0,0,0,0,0,0,0,-1.5311,-1.5312,-1.5325,-1.5314,-1.5312,-1.5305,-1.5305,-1.5317,-1.5305,-1.53,-1.5298,-1.5298,-1.5296,-1.5298,-1.5298,-1.5318,-1.5294,-1.5294,-1.5295,-1.5295,-1.5359,-1.536,0,0,0,0,0,0,-1.5313,-1.5312,-1.5325,-1.5325,-1.5309,-1.5307,-1.5306,-1.531,-1.5305,-1.5303,-1.5299,-1.5297,-1.5297,-1.5297,-1.5298,-1.533,-1.5295,-1.5295,-1.5296,-1.5358,-1.5359,-1.5361,0,0,0,0,0,0,-1.5312,-1.5314,-1.5326,-1.5318,-1.5319,-1.5308,-1.5313,-1.5311,-1.5313,-1.5304,-1.5301,-1.5303,-1.5296,-1.5297,-1.5313,-1.5329,-1.5296,-1.5297,-1.5357,-1.5358,-1.536,-1.5393,0,0,0,0,0,0,-1.5312,-1.5314,-1.5325,-1.5319,-1.532,-1.5341,-1.5314,-1.5312,-1.5315,-1.5312,-1.5307,-1.5306,-1.5295,-1.5312,-1.5314,-1.533,-1.5297,-1.5355,-1.5357,-1.5359,-1.539,-1.5396,-1.54,0,0,0,0,0,-1.5311,-1.5334,-1.5325,-1.5327,-1.5332,-1.5342,-1.5342,-1.533,-1.5316,-1.5326,-1.532,-1.5306,-1.5327,-1.5314,-1.5316,-1.5332,-1.5354,-1.5357,-1.5359,-1.5388,-1.5395,-1.54,0,0,0,0,0,0,-1.5342,-1.5333,-1.5323,-1.5344,-1.5344,-1.5337,-1.5349,-1.5337,-1.5341,-1.5338,-1.5323,-1.5322,-1.5341,-1.5338,-1.5324,-1.5358,-1.5338,-1.5341,-1.5359,-1.5365,-1.537,-1.537,-1.5298,0,0,0,0,0,-1.5352,-1.536,-1.5352,-1.5371,-1.5372,-1.5361,-1.5364,-1.5355,-1.5354,-1.5354,-1.5349,-1.5349,-1.5355,-1.536,-1.5366,-1.539,-1.5389,-1.5402,-1.5407,-1.5411,-1.5414,-1.5426,-1.5432,-1.5369,-1.5369,-1.5369,0,0,-1.5371,-1.5367,-1.5373,-1.5377,-1.5376,-1.5385,-1.5361,-1.5372,-1.5378,-1.5355,-1.5371,-1.5367,-1.5366,-1.5386,-1.5395,-1.5385,-1.5431,-1.5414,-1.5417,-1.5418,-1.543,-1.5436,-1.5441,-1.5371,-1.5371,-1.537,0,0,-1.5411,-1.5408,-1.5425,-1.5424,-1.5422,-1.5414,-1.5418,-1.5413,-1.541,-1.5425,-1.5408,-1.5416,-1.5427,-1.5427,-1.5429,-1.5468,-1.5455,-1.5471,-1.5496,-1.5508,-1.5513,-1.5518,-1.5532,-1.5537,-1.5473,-1.5474,-1.5474,0,-1.5435,-1.5448,-1.5434,-1.5446,-1.5449,-1.5428,-1.5444,-1.5444,-1.5445,-1.5447,-1.5435,-1.5449,-1.5447,-1.5467,-1.5477,-1.5479,-1.5483,-1.5471,-1.5514,-1.5518,-1.5522,-1.5535,-1.5541,-1.5475,-1.5475,-1.5475,-1.5475,0,-1.5478,-1.5488,-1.5501,-1.5502,-1.5505,-1.5519,-1.5508,-1.5513,-1.5503,-1.5497,-1.5513,-1.5509,-1.5514,-1.5518,-1.5508,-1.5536,-1.553,-1.5516,-1.5496,-1.553,-1.5542,-1.5547,-1.5478,-1.5478,-1.5477,-1.5476,0,0,-1.5538,-1.553,-1.5535,-1.5535,-1.5532,-1.5539,-1.5552,-1.5557,-1.5562,-1.5562,-1.5573,-1.5584,-1.5571,-1.5572,-1.5563,-1.5574,-1.5606,-1.5558,-1.5558,-1.5568,-1.5637,-1.5647,-1.5654,-1.5597,-1.5598,-1.5598,-1.5637,0,-1.5576,-1.5598,-1.5586,-1.561,-1.5618,-1.5599,-1.561,-1.561,-1.5604,-1.5611,-1.5605,-1.5612,-1.5595,-1.5596,-1.5605,-1.56,-1.5619,-1.5597,-1.5607,-1.5607,-1.5608,-1.566,-1.5671,-1.5708,-1.5642,-1.5642,-1.5643,0,-1.5624,-1.5627,-1.5652,-1.5646,-1.565,-1.566,-1.5663,-1.567,-1.5668,-1.5663,-1.5665,-1.5653,-1.5666,-1.5645,-1.5662,-1.5647,-1.565,-1.5648,-1.5649,-1.565,-1.5627,-1.5662,-1.5719,-1.5725,-1.565,-1.565,-1.5649,0,-1.5665,-1.5675,-1.5691,-1.5692,-1.5686,-1.5694,-1.5692,-1.5689,-1.5693,-1.5695,-1.5698,-1.5702,-1.5704,-1.5708,-1.5697,-1.5683,-1.5715,-1.5694,-1.5712,-1.5712,-1.572,-1.572,-1.5779,-1.5722,-1.5722,-1.5722,-1.5722,0,-1.571,-1.5726,-1.571,-1.5719,-1.5737,-1.5723,-1.574,-1.5736,-1.5734,-1.5743,-1.5726,-1.5735,-1.572,-1.5727,-1.5718,-1.5734,-1.5735,-1.5732,-1.5729,-1.5734,-1.5734,-1.5736,-1.5733,-1.5723,-1.5723,-1.5723,-1.5722,0,-1.5759,-1.5749,-1.5765,-1.5758,-1.5757,-1.577,-1.5764,-1.5773,-1.5766,-1.5778,-1.5779,-1.5769,-1.5777,-1.5766,-1.5772,-1.5767,-1.5788,-1.5782,-1.5789,-1.5787,-1.5806,-1.5805,-1.5868,-1.5876,-1.5814,-1.5815,-1.5815,0,-1.5788,-1.58,-1.5794,-1.5799,-1.5798,-1.5805,-1.5809,-1.5795,-1.5799,-1.5799,-1.5808,-1.5814,-1.5818,-1.5831,-1.5824,-1.5829,-1.5823,-1.5845,-1.5824,-1.5828,-1.5824,-1.5823,-1.5825,-1.585,-1.585,-1.5851,-1.5851,0,-1.5841,-1.5835,-1.584,-1.5844,-1.5849,-1.5851,-1.5852,-1.5857,-1.5843,-1.5848,-1.5856,-1.5859,-1.5866,-1.5872,-1.5875,-1.5873,-1.586,-1.5858,-1.5863,-1.5867,-1.5871,-1.5869,-1.5801,-1.5857,-1.5856,-1.5856,-1.5856,-1.5855,-1.5881,-1.589,-1.5888,-1.5895,-1.5894,-1.5895,-1.5903,-1.5898,-1.5904,-1.5908,-1.59,-1.5909,-1.5908,-1.591,-1.591,-1.5917,-1.5908,-1.5914,-1.5916,-1.5918,-1.5921,-1.5869,-1.5918,-1.5918,-1.5918,-1.5917,-1.5917,0,-1.5933,-1.593,-1.5937,-1.5939,-1.5944,-1.5931,-1.5931,-1.5937,-1.5946,-1.5945,-1.5949,-1.5958,-1.5964,-1.5958,-1.5963,-1.597,-1.5964,-1.5972,-1.5971,-1.5971,-1.5929,-1.5925,-1.5977,-1.5977,-1.5977,-1.5977,-1.5977,-1.5977,-1.5961,-1.5976,-1.597,-1.5986,-1.5983,-1.5992,-1.5994,-1.5995,-1.5995,-1.6005,-1.601,-1.6006,-1.6003,-1.6007,-1.6013,-1.6011,-1.6013,-1.6023,-1.6019,-1.598,-1.5974,-1.5969,-1.5965,-1.6024,-1.6024,-1.6061,-1.6061,-1.6061]}]]